Temp_Advection
nan nan nan nan nan nan nan nan nan nan nan nan nan nan nan nan nan nan nan nan nan nan nan nan nan nan nan nan nan nan nan nan nan nan nan nan nan nan nan nan nan nan nan nan nan nan nan nan nan nan nan nan
nan -0 -0 -0 -0 -0 -0 -0 -0 -1 -0 -0 -0 0 0 0 0 -0 -0 -0 -0 -0 0 0 -0 0 1 0 -0 0 -0 0 0 0 0 -0 -0 0 0 -0 -0 -0 -0 -0 -0 -0 -0 0 0 1 0 nan
nan -0 -0 -1 -1 -1 -1 -0 -0 -0 -0 -0 -0 -0 0 0 0 0 -0 -0 -0 -0 0 0 0 0 1 0 0 0 -0 0 0 0 0 0 -0 0 0 -0 -0 0 -0 -0 -0 -0 -0 0 0 1 1 nan
nan -0 -0 -1 -1 -1 -1 -1 -1 -0 -0 -0 -0 -0 -0 -0 -0 -0 -0 -0 -0 -0 -0 0 0 0 0 0 0 0 0 0 -0 -0 0 0 0 0 0 0 0 0 0 -0 -0 -0 -0 0 0 1 0 nan
nan -0 -0 -0 -1 -1 -1 -1 -1 -1 -0 -0 -0 -0 -0 -0 -0 -0 -0 -0 -0 -0 0 -0 -0 0 0 0 0 0 0 0 -0 0 0 0 0 0 0 1 1 -0 -0 0 0 -0 -0 -0 0 1 0 nan
nan -0 -0 -0 -0 -1 -1 -1 -1 -1 -1 -0 -0 -0 -0 -0 -0 -0 -0 -0 -0 -0 0 0 -0 -0 0 0 0 -0 -0 -0 0 0 0 -0 0 1 1 1 1 0 -1 0 0 0 0 -0 0 1 0 nan
nan -0 -0 -0 -0 -0 -1 -1 -1 -1 -1 -0 -0 -0 -0 -0 -0 -0 -0 -0 -0 -0 -0 -0 0 0 -0 0 0 -0 -0 -0 0 1 1 1 0 1 0 0 1 -0 -0 0 1 1 0 -0 0 1 1 nan
nan -0 -0 -0 -0 -0 -0 -0 -1 -1 -1 -1 -1 -0 -0 -0 -0 -0 -0 -0 0 0 0 -0 -0 -0 -0 -0 -0 0 0 0 1 1 1 1 0 0 -0 0 0 0 0 0 1 0 -0 -0 0 0 0 nan
nan -0 -0 -0 -0 -0 -0 -0 -0 -0 -1 -1 -1 -0 -0 -0 -1 -0 -0 -0 -0 0 0 0 -0 -0 -0 -0 -0 -0 0 1 1 0 0 0 1 0 -0 -0 0 1 1 0 0 -0 -0 -0 0 0 0 nan
nan -0 -0 -0 -0 -0 -0 -0 -0 -0 -1 -1 -0 -1 -0 -0 -1 -1 -1 -1 -1 -0 0 0 0 -0 -1 -1 -1 -0 0 0 1 0 -0 -0 0 0 -1 -0 1 0 0 0 0 -0 -0 -0 -0 0 0 nan
nan -0 -0 -0 -0 -0 -0 -0 -1 -1 -1 -1 -1 -1 -1 -1 -1 -1 -1 -1 -1 -1 -1 -0 -0 -0 -0 -1 -1 -0 -0 -0 -0 -0 -0 -0 -0 -0 -0 0 0 0 -0 -0 0 -0 -0 -0 -0 -0 0 nan
nan -0 -0 -1 -1 -1 -1 -1 -1 -1 -1 -1 -1 -1 -1 -1 -1 -1 -1 -1 -1 -1 -1 -1 -1 -1 -1 -1 -1 -1 -0 -0 -0 -0 -0 -0 -0 -0 0 0 0 0 -0 -0 -0 0 -0 -0 0 -0 -0 nan
nan 0 0 -0 -1 -1 -1 -1 -1 -1 -1 -1 -1 -1 -1 -1 -1 -1 -1 -1 -1 -1 -1 -1 -1 -1 -1 -1 -1 -1 -1 -0 -0 0 0 -0 -0 -0 -0 -0 0 0 0 0 0 -0 -0 0 0 0 -0 nan
nan 0 0 0 -0 -0 -1 -1 -1 -1 -1 -1 -1 -1 -1 -1 -1 -1 -1 -1 -1 -1 -1 -1 -1 -1 -1 -1 -1 -1 -0 -0 -0 -0 -0 -0 -0 -0 -0 -0 -0 -0 -0 -0 0 0 0 0 0 0 0 nan
nan 0 0 0 0 0 -0 -0 -1 -1 -1 -1 -1 -1 -1 -1 -1 -0 -1 -1 -1 -0 -0 -0 -0 -1 -0 -0 -0 -0 -0 -0 0 0 -0 -0 -0 -0 -0 -0 -0 -0 -0 -0 0 0 0 0 0 -0 -0 nan
nan 0 0 0 1 1 1 0 0 -0 -0 -0 -0 -0 -1 -1 -1 -0 -0 -0 -0 -0 -0 -0 -0 -0 -0 -0 -0 -0 -1 -0 0 0 0 -0 -0 -0 -0 -0 -0 -0 -0 -0 -0 -0 -0 -0 -0 -0 -0 nan
nan 0 0 0 0 1 1 1 1 0 -0 -0 -0 -0 -0 -0 -1 -1 -0 -0 -0 -0 -0 -0 -1 -0 -0 -0 -0 -0 -1 -1 -0 -0 -0 -0 -0 -0 -0 -0 -0 -0 -0 -0 -0 -0 -0 -0 -0 -0 -0 nan
nan -0 -0 0 0 1 1 1 1 1 0 -0 -0 -0 -0 -0 -0 -0 -0 -0 -0 -0 -0 -0 -0 -1 -1 -1 -1 -1 -1 -1 -1 -1 -0 -0 -0 0 -0 -0 -0 -0 -0 -1 -1 -1 -1 -0 -0 -0 -0 nan
nan -0 -0 -0 -0 0 0 1 1 1 0 0 0 0 -0 -0 -0 -0 -0 -0 -0 -0 -0 -0 -0 -0 -1 -1 -1 -1 -1 -1 -1 -1 -1 -0 -0 -0 0 -0 -0 -0 -0 -0 -1 -1 -1 -0 -0 -0 -0 nan
nan -0 -0 -0 -1 -0 -0 -0 0 1 1 0 0 0 0 -0 -0 -0 -0 -0 -0 -0 -0 -0 -0 -0 -0 -0 -0 -0 -0 -0 -0 -1 -1 -1 -0 -0 0 0 -0 -0 -0 -0 -0 -0 -1 -0 -0 -0 -0 nan
nan -0 -0 -0 -1 -1 -1 -1 -0 0 0 0 0 0 0 0 0 -0 -0 -0 -0 -0 -0 -0 -0 -0 0 0 -0 -0 0 -0 -0 -0 -0 -0 -0 -0 -0 0 0 -0 -0 -0 -0 -0 -0 -0 -0 -0 -0 nan
nan -0 -0 -0 -0 -0 -0 -1 -1 -0 -0 -0 0 0 0 0 0 0 0 0 -0 -0 -0 -0 -0 -0 0 0 0 0 0 0 0 0 -0 -0 -0 -0 -0 0 0 0 0 -0 -0 -0 -0 -0 -0 -0 -0 nan
nan -0 -0 -0 -0 -0 -0 -0 -0 -0 -0 -0 -0 0 0 0 0 0 0 0 0 0 0 -0 -0 -0 -0 -0 -0 -0 -0 0 0 0 0 -0 -0 -0 -0 -0 -0 0 0 0 0 -0 -0 -0 -0 -0 -0 nan
nan -0 -0 -0 -0 -0 -0 -0 -0 -0 -0 -0 -0 -0 -0 0 0 0 0 0 0 0 0 0 -0 -0 -0 -0 -0 -0 -0 -0 -0 -0 -0 -0 -0 -0 -0 -0 -0 -0 -0 0 0 0 -0 -0 -0 -0 -0 nan
nan -0 -0 -0 -0 -0 -0 -0 -0 -0 -0 -0 -0 -0 -0 -0 0 0 0 0 0 0 0 0 0 0 0 -0 -0 -0 -0 -0 -0 -0 -0 -0 -0 -0 -0 -0 -0 -0 -0 -0 -0 -0 -0 -0 -0 -0 -0 nan
nan -0 -0 -0 -0 -0 -0 -0 -0 -0 -0 -0 -0 -0 -0 -0 -0 0 0 0 0 0 0 0 0 0 0 0 -0 -0 -0 -0 -0 -0 -0 -0 -0 -0 -0 -0 -0 -0 -0 -0 -0 -0 -1 -1 -1 -0 -0 nan
nan -0 -0 -0 -0 -0 -0 -0 -0 -0 -0 -0 -0 -0 -0 -0 -0 -0 -0 -0 -0 -0 -0 0 0 0 0 0 0 0 -0 -0 -0 -0 -0 -0 -0 -0 -0 -0 -0 -0 -0 -0 -0 -0 -0 -1 -1 -1 -0 nan
nan -0 -0 -0 -0 -0 -0 -0 -0 -0 -0 -0 -0 -0 -0 -0 -0 -0 -0 -0 -0 -0 -0 -0 -0 -0 -0 0 0 0 0 0 -0 -0 -0 -0 -0 -0 -0 -0 -0 -0 -0 -0 -0 -0 -0 -0 -1 -1 -0 nan
nan -0 -0 -0 -0 -0 -0 -0 -0 0 0 0 0 -0 -0 -0 -0 -0 -0 -0 -0 -0 -0 -0 -0 -0 -0 -0 -0 -0 -0 -0 -0 -0 -0 -0 -1 -0 -0 -0 -0 -0 -0 -0 0 0 -0 -0 -0 -0 -0 nan
nan -0 -0 -0 -0 -0 0 0 0 0 0 -0 -0 -0 -0 -0 -0 -0 -0 -0 -0 -0 -0 -0 -1 -0 -0 -0 -0 -0 -0 -0 -0 -0 -0 -0 -1 -1 -0 -0 -0 -0 0 0 0 0 0 0 0 -0 -0 nan
nan nan nan nan nan nan nan nan nan nan nan nan nan nan nan nan nan nan nan nan nan nan nan nan nan nan nan nan nan nan nan nan nan nan nan nan nan nan nan nan nan nan nan nan nan nan nan nan nan nan nan nan
Wind_Speed
22 23 23 23 23 23 23 23 23 22 23 23 23 22 21 21 21 22 22 22 22 22 21 20 20 18 18 20 22 23 23 22 19 16 15 15 16 17 17 17 17 17 18 19 19 18 18 20 22 24 25 24
23 24 24 25 25 25 25 24 24 23 23 23 23 23 22 21 21 21 22 22 22 22 22 20 18 17 17 21 25 25 23 24 24 21 18 17 17 18 19 19 18 18 18 18 18 18 18 19 20 21 24 24
23 24 25 26 26 26 25 24 24 24 23 23 23 23 23 22 21 21 22 22 22 22 22 21 18 16 17 21 25 25 23 26 29 27 23 20 19 20 20 20 20 20 20 18 18 18 18 19 20 20 23 23
22 24 25 26 26 25 24 24 23 23 23 23 23 23 23 23 22 22 22 22 22 21 21 20 19 17 17 19 23 24 24 26 29 31 29 24 22 22 21 21 22 22 22 20 18 18 18 19 20 20 21 22
21 23 24 24 24 24 23 22 21 22 22 23 23 22 22 22 21 21 22 22 22 21 20 20 19 18 17 17 20 23 25 27 30 32 33 30 26 26 24 23 23 23 23 22 20 19 19 19 20 19 19 21
21 21 22 22 22 22 21 20 20 20 21 22 22 22 21 21 21 20 21 21 21 21 20 19 18 18 17 18 19 22 25 28 31 32 34 33 32 31 27 24 24 23 24 23 22 21 21 20 19 18 18 21
19 20 20 20 20 20 20 19 19 19 20 21 22 22 21 20 20 20 20 20 20 20 20 19 19 18 18 18 20 22 24 27 30 33 34 32 33 34 29 26 25 23 23 24 24 23 21 20 21 21 21 23
19 20 19 19 18 18 18 18 18 18 19 19 20 20 20 20 19 18 18 19 19 19 19 19 19 19 19 19 19 21 22 25 27 30 33 31 31 36 32 27 26 25 26 25 23 20 18 19 21 22 24 24
21 20 19 18 17 17 16 16 16 17 17 18 19 19 19 18 18 17 17 17 18 18 18 18 18 18 18 19 20 20 21 22 22 23 27 26 26 33 32 29 28 25 21 19 18 16 15 18 20 23 25 25
21 20 19 17 16 16 16 15 15 15 15 16 17 17 17 16 15 16 15 15 16 16 16 16 16 16 16 17 18 20 20 19 17 16 16 18 21 27 29 30 26 16 11 11 14 14 16 19 20 23 25 26
20 18 17 16 15 15 15 15 15 14 13 14 14 14 15 14 14 14 14 14 15 15 14 14 13 13 14 15 16 17 17 16 13 11 11 13 17 20 21 20 14 9 9 10 13 16 17 18 21 23 25 27
17 16 16 15 15 14 14 14 14 14 13 13 12 12 13 13 13 13 13 14 15 14 13 13 12 12 12 12 13 14 13 13 11 10 9 10 11 12 12 11 9 10 11 11 12 15 17 19 22 24 26 28
15 15 14 13 13 13 13 14 14 14 14 13 12 12 12 12 12 11 11 12 14 13 13 13 13 13 12 11 11 11 11 11 10 9 9 8 8 10 10 10 11 13 13 14 15 16 18 19 21 23 27 29
14 14 13 12 12 11 12 12 13 13 12 13 13 13 12 12 11 10 10 11 12 12 11 12 12 13 13 12 11 11 10 10 9 8 8 8 9 9 10 11 13 14 16 17 18 19 20 20 20 20 23 25
13 13 12 12 11 10 11 11 11 12 12 12 13 13 13 12 10 9 9 10 11 10 9 10 11 11 11 11 11 10 10 10 9 8 8 8 9 9 10 12 13 14 16 17 19 19 19 19 19 19 21 23
13 12 12 13 11 10 10 10 9 10 10 12 13 12 11 12 11 10 9 9 10 9 9 9 9 10 10 10 9 9 9 9 9 8 8 8 8 9 10 10 11 12 13 14 16 17 17 18 19 19 21 22
12 12 12 12 12 10 10 11 10 10 10 10 12 11 10 11 11 10 10 9 9 9 9 9 10 10 10 10 9 9 9 9 10 9 8 8 8 8 8 7 8 9 10 12 14 16 18 19 19 20 22 22
10 11 11 12 11 10 10 11 11 10 10 9 10 11 11 11 10 9 10 10 10 10 10 10 10 11 10 10 9 9 8 8 9 9 8 8 8 7 7 6 7 8 10 12 14 15 18 20 21 21 22 23
10 10 10 11 11 11 10 11 10 10 9 9 9 10 10 10 9 9 9 10 11 11 11 10 10 11 11 11 11 10 9 8 8 9 8 8 7 6 6 6 7 9 10 12 13 15 17 18 20 20 22 22
10 9 9 9 10 10 11 11 11 11 10 9 9 8 8 9 8 8 8 9 10 11 11 11 10 10 11 12 12 11 9 9 9 9 8 8 7 6 6 6 6 7 9 10 12 13 14 16 17 18 19 20
9 9 8 9 9 10 10 11 11 11 11 10 9 8 7 7 8 7 7 8 8 9 10 10 10 10 11 12 12 11 10 10 10 9 9 9 8 8 7 7 6 7 8 9 10 11 12 14 15 16 17 18
10 9 9 9 9 9 9 10 10 11 11 11 10 10 8 7 7 7 8 8 7 8 9 10 10 10 10 11 10 9 9 10 9 9 10 10 9 9 9 9 9 8 8 9 10 11 11 12 14 15 16 17
9 9 9 9 9 9 9 9 9 10 11 11 11 11 11 11 10 9 9 9 8 7 8 9 9 9 9 9 9 8 9 10 9 9 10 10 10 10 9 9 10 11 11 11 11 12 12 13 14 15 15 16
9 9 9 9 9 9 9 9 9 10 10 10 11 11 12 12 12 11 11 10 10 8 8 8 8 8 8 7 7 8 9 9 9 9 9 9 10 11 10 10 10 11 12 13 13 14 14 15 15 15 16 16
8 8 8 8 8 8 9 9 9 10 10 10 10 11 11 11 11 11 11 11 10 10 9 9 9 8 8 8 7 7 8 8 9 9 8 8 9 10 10 11 11 12 12 13 14 15 16 17 18 18 17 17
7 8 8 8 9 9 9 9 9 10 10 10 10 11 11 11 11 11 11 11 11 11 10 10 9 9 9 9 8 8 8 8 9 9 9 9 9 9 10 10 11 12 12 12 13 15 17 17 17 17 18 18
8 8 9 9 10 10 10 9 10 10 10 10 10 10 10 11 11 11 11 11 11 11 11 11 10 10 10 9 9 8 8 9 9 10 10 10 10 10 10 10 10 11 11 12 13 13 13 13 15 17 16 15
8 9 9 10 10 11 10 10 10 10 10 11 10 10 11 11 11 12 12 12 12 12 12 12 12 11 11 10 10 9 8 9 9 9 9 10 10 10 10 11 11 11 11 12 12 11 10 11 13 11 9 12
9 10 10 11 11 11 10 10 9 9 10 11 11 11 12 12 12 13 13 13 13 13 13 13 13 12 12 11 11 10 9 9 9 9 10 10 10 11 11 11 12 12 12 12 12 11 11 10 8 7 11 16
9 9 9 10 10 10 9 9 10 10 11 12 12 13 13 14 14 14 14 14 14 14 14 14 14 13 13 12 11 11 10 10 10 10 10 10 10 10 11 11 12 13 13 12 12 12 12 11 10 14 18 17
8 8 9 9 10 10 10 10 11 12 13 14 14 14 15 15 15 15 15 15 15 15 15 15 15 15 15 14 13 12 11 11 11 10 10 10 10 10 10 11 12 13 14 13 13 13 13 14 14 16 17 16
Wind_Direction
309 310 309 309 309 309 309 308 307 307 304 300 299 297 295 293 292 291 289 288 286 286 288 289 290 285 270 260 263 270 269 269 271 271 271 273 274 274 275 276 276 276 278 280 284 286 283 280 278 276 271 263
309 309 309 308 307 307 306 306 304 304 302 298 296 295 294 293 291 290 289 288 287 286 287 288 289 282 265 256 260 268 267 265 271 271 269 270 268 268 269 270 271 272 273 277 283 285 282 277 275 271 266 264
309 310 310 309 307 305 303 302 301 300 299 296 293 293 292 291 290 289 288 287 286 285 286 288 287 280 262 250 253 263 262 260 268 270 269 269 267 267 267 268 269 270 271 273 277 280 279 277 277 271 263 261
313 313 311 309 307 305 302 300 299 297 295 294 292 291 290 290 288 288 287 286 285 284 285 285 285 281 268 252 248 254 257 258 263 266 268 268 268 265 262 265 266 268 270 270 272 273 274 274 274 271 265 263
317 315 312 310 309 307 304 301 298 296 294 292 291 291 289 289 288 288 288 287 286 285 284 283 284 282 277 265 253 250 251 254 256 261 265 264 266 264 257 258 260 265 269 269 269 271 272 271 271 270 267 266
318 316 314 312 311 309 308 305 301 297 294 293 292 292 291 289 288 288 288 289 289 288 286 284 284 283 279 271 261 254 251 250 251 256 262 263 264 258 253 255 257 263 267 268 267 268 269 269 269 265 258 259
316 315 315 313 312 312 313 311 307 302 297 295 293 293 293 292 289 289 290 292 292 292 292 289 286 284 282 275 267 261 257 255 253 255 259 265 263 252 250 256 256 261 265 266 263 266 273 277 277 269 261 260
315 316 316 313 311 313 315 315 313 307 301 298 297 296 297 295 292 292 292 294 295 295 294 294 291 288 287 283 278 270 264 261 259 258 257 265 266 255 257 263 261 267 269 269 269 273 287 295 294 285 278 274
316 317 316 313 311 312 315 318 315 310 305 301 300 300 301 298 295 293 292 293 293 294 294 296 297 296 295 292 289 282 276 270 266 265 264 271 272 261 264 271 270 271 273 278 281 284 295 299 300 293 283 276
317 317 315 313 310 312 315 318 317 312 308 305 304 305 305 304 300 295 295 294 294 295 294 295 298 301 303 301 299 293 287 284 279 280 283 289 281 265 263 265 267 274 283 286 283 281 290 297 299 295 283 272
318 316 313 311 309 311 315 318 319 318 314 311 312 313 313 311 309 307 307 305 301 301 299 297 299 303 308 308 307 304 299 295 291 293 300 292 277 270 267 261 264 290 295 286 282 280 285 293 294 291 282 270
318 314 312 312 310 313 316 319 323 326 327 325 321 319 319 319 320 321 321 317 312 312 311 308 309 310 312 315 315 316 314 307 298 294 299 290 273 271 272 264 267 284 286 282 281 279 282 288 288 284 275 264
317 314 313 314 315 319 320 321 327 333 337 337 334 328 323 324 325 328 330 326 324 326 325 321 319 318 320 325 325 325 324 317 305 293 290 285 272 270 272 270 270 276 280 280 279 282 286 288 287 281 270 260
319 316 316 317 320 324 324 325 330 333 336 337 337 334 330 329 330 332 334 330 329 332 333 332 328 328 330 332 332 330 328 323 309 293 287 280 273 275 276 274 272 273 277 280 282 285 287 287 286 280 269 262
323 321 319 319 322 324 322 324 328 328 329 330 330 333 337 338 337 335 335 332 329 329 328 330 332 336 336 333 332 329 324 322 313 297 289 284 281 283 282 279 276 275 277 279 281 283 286 288 285 277 268 265
328 326 322 320 322 322 320 320 321 322 323 323 324 333 339 337 338 337 337 336 333 329 326 327 328 329 328 326 324 320 315 314 311 302 294 287 282 280 279 280 281 282 285 286 286 287 288 288 283 276 270 268
338 336 333 328 327 323 320 320 319 319 323 328 330 332 331 330 338 342 341 340 339 336 333 331 327 322 320 318 314 312 312 310 306 302 301 297 290 287 288 291 297 301 307 304 297 295 293 288 281 275 272 270
349 351 348 344 342 337 331 329 327 325 328 335 333 328 327 335 346 348 344 343 344 345 341 338 335 333 331 328 328 327 324 322 313 306 303 301 297 300 308 319 331 331 325 315 306 301 295 287 277 272 270 269
353 358 357 354 353 352 350 348 346 342 340 341 339 337 339 346 351 348 347 345 344 345 344 343 343 344 345 344 345 342 339 337 329 320 314 308 305 309 316 326 339 338 332 323 314 306 296 288 281 277 273 269
352 357 359 359 360 2 2 3 4 360 355 355 353 352 349 348 349 347 349 349 348 345 340 339 342 346 347 349 351 350 347 344 337 334 330 322 316 311 311 319 331 334 333 328 320 313 305 298 293 289 285 281
351 356 0 5 8 11 13 13 15 12 10 10 6 3 360 353 351 348 348 347 347 348 345 341 339 341 341 343 350 351 350 347 343 342 337 330 323 316 309 308 312 320 325 324 320 317 313 307 304 299 295 291
352 359 5 11 14 18 21 21 22 21 21 22 19 17 17 11 4 359 356 352 349 350 348 345 342 341 338 339 343 344 343 344 343 342 335 327 322 318 313 307 306 307 310 312 312 311 310 308 305 301 299 297
357 3 10 14 18 22 24 25 28 27 26 26 25 24 23 21 19 15 12 7 4 360 347 340 340 341 339 337 336 332 330 331 330 330 327 320 316 312 310 310 307 305 304 305 309 309 307 305 302 300 300 300
7 10 15 19 22 26 27 28 30 29 27 27 27 25 23 21 19 17 15 12 8 3 351 341 338 337 336 333 330 324 318 315 313 313 311 307 303 299 299 302 302 301 302 302 304 306 305 304 303 302 299 297
20 21 23 25 25 27 29 29 29 28 26 27 27 25 23 20 17 16 14 12 8 4 359 352 344 338 333 328 324 319 314 311 309 305 301 295 290 289 291 295 297 297 300 304 304 304 303 301 301 300 298 298
32 30 29 29 27 27 29 29 28 28 27 26 27 25 23 21 18 17 15 13 10 6 3 358 354 348 342 336 330 324 320 317 315 312 308 303 295 292 291 292 294 296 301 305 305 305 306 305 303 300 299 298
35 32 30 27 25 26 26 25 26 25 25 24 23 22 21 20 18 17 16 14 10 7 4 1 357 354 351 348 341 332 325 320 319 318 317 315 309 305 302 299 297 299 302 303 305 310 310 309 309 308 306 303
30 29 28 25 22 23 21 21 22 21 22 21 19 18 18 18 16 14 14 12 10 7 5 4 360 355 351 349 345 339 332 325 320 317 317 318 316 314 312 310 308 306 305 306 310 313 309 308 312 311 309 308
25 25 26 24 21 21 20 20 21 19 20 20 17 16 17 16 15 13 11 10 8 6 5 3 0 358 353 349 345 340 335 332 328 326 323 323 322 320 320 319 317 315 312 310 309 307 304 306 306 290 294 305
26 26 24 25 22 20 18 16 15 15 16 17 16 15 16 15 14 12 11 10 8 6 4 1 360 359 356 353 348 342 338 335 331 327 324 324 324 323 323 322 320 317 313 311 307 301 298 291 283 284 293 301
22 22 21 21 20 17 15 13 12 14 14 15 14 13 13 12 11 10 9 8 6 5 3 0 358 357 355 355 352 347 342 335 328 326 324 324 324 324 323 321 318 315 312 312 307 302 296 289 283 285 289 292
Height
1568 1567 1565 1564 1563 1562 1561 1560 1559 1558 1557 1556 1554 1554 1553 1552 1551 1550 1549 1549 1548 1548 1547 1546 1546 1545 1545 1545 1546 1545 1545 1545 1545 1545 1545 1545 1545 1545 1545 1545 1545 1545 1545 1544 1544 1544 1544 1544 1543 1544 1544 1544
1567 1565 1564 1563 1561 1560 1559 1558 1557 1556 1555 1554 1553 1552 1551 1550 1549 1548 1547 1546 1545 1545 1544 1544 1543 1543 1542 1543 1543 1543 1543 1543 1542 1543 1543 1542 1542 1542 1542 1542 1542 1543 1543 1543 1542 1542 1542 1541 1541 1541 1542 1542
1565 1564 1562 1561 1560 1558 1557 1556 1555 1554 1553 1552 1551 1550 1549 1548 1547 1546 1545 1544 1543 1542 1542 1541 1540 1540 1540 1540 1541 1541 1541 1541 1540 1540 1540 1540 1540 1540 1540 1540 1540 1540 1540 1541 1540 1540 1539 1539 1539 1539 1539 1540
1564 1562 1561 1559 1558 1556 1555 1554 1553 1552 1551 1550 1549 1548 1547 1546 1545 1544 1543 1542 1541 1540 1539 1539 1538 1537 1537 1537 1537 1538 1538 1538 1538 1537 1537 1537 1537 1537 1537 1538 1538 1538 1538 1538 1538 1537 1537 1537 1537 1537 1537 1538
1562 1561 1559 1558 1556 1554 1553 1552 1551 1550 1549 1548 1547 1546 1545 1544 1543 1542 1541 1539 1539 1538 1537 1536 1536 1535 1534 1534 1534 1534 1534 1534 1535 1534 1533 1534 1534 1533 1534 1535 1535 1535 1535 1535 1535 1535 1535 1535 1535 1535 1536 1536
1561 1559 1558 1556 1554 1553 1551 1550 1549 1548 1547 1546 1545 1544 1543 1542 1541 1540 1539 1537 1536 1536 1535 1534 1534 1533 1532 1532 1531 1531 1531 1531 1531 1530 1530 1531 1531 1531 1530 1530 1531 1532 1532 1532 1532 1532 1532 1532 1533 1533 1534 1534
1560 1558 1556 1555 1553 1551 1550 1548 1547 1546 1545 1544 1543 1542 1541 1540 1539 1538 1537 1536 1535 1534 1533 1532 1532 1531 1530 1530 1529 1528 1528 1528 1528 1528 1527 1528 1529 1528 1526 1526 1528 1529 1529 1529 1529 1530 1530 1530 1531 1531 1531 1532
1559 1557 1555 1553 1551 1550 1548 1547 1546 1544 1543 1542 1541 1540 1539 1538 1537 1536 1535 1534 1533 1532 1531 1530 1530 1529 1528 1528 1527 1526 1525 1525 1525 1525 1525 1525 1526 1526 1525 1525 1526 1526 1526 1527 1528 1529 1529 1529 1529 1529 1530 1530
1557 1555 1553 1551 1549 1548 1547 1545 1544 1543 1541 1540 1539 1538 1537 1536 1535 1534 1533 1532 1531 1530 1530 1529 1528 1527 1526 1525 1525 1524 1523 1522 1522 1522 1522 1522 1523 1523 1523 1524 1524 1524 1525 1526 1527 1527 1527 1527 1527 1527 1527 1528
1555 1554 1551 1549 1548 1546 1545 1544 1543 1541 1540 1539 1537 1536 1535 1534 1533 1532 1531 1530 1529 1529 1528 1527 1526 1526 1525 1524 1523 1522 1521 1520 1520 1520 1520 1520 1520 1520 1521 1522 1523 1523 1524 1524 1525 1525 1524 1524 1524 1525 1525 1525
1554 1552 1550 1548 1547 1545 1544 1542 1541 1540 1539 1537 1536 1534 1533 1532 1531 1530 1530 1529 1528 1527 1526 1525 1525 1524 1523 1522 1521 1520 1519 1519 1518 1518 1518 1519 1519 1519 1521 1522 1522 1523 1523 1522 1522 1523 1522 1522 1522 1523 1523 1523
1552 1550 1549 1547 1546 1544 1543 1541 1540 1538 1537 1536 1534 1533 1532 1531 1530 1529 1528 1527 1527 1526 1525 1524 1523 1522 1522 1521 1520 1519 1518 1518 1517 1517 1517 1518 1518 1519 1519 1521 1521 1521 1521 1520 1520 1521 1520 1520 1521 1520 1521 1520
1550 1549 1547 1546 1544 1543 1542 1540 1539 1538 1536 1535 1534 1532 1531 1530 1529 1528 1527 1526 1525 1525 1524 1523 1522 1521 1521 1520 1519 1519 1518 1517 1517 1517 1516 1517 1517 1517 1518 1518 1518 1519 1518 1518 1519 1519 1518 1519 1519 1519 1519 1519
1549 1547 1546 1545 1543 1542 1541 1540 1538 1537 1536 1534 1533 1532 1530 1529 1528 1527 1526 1525 1525 1524 1523 1523 1522 1521 1520 1520 1519 1518 1518 1517 1516 1516 1516 1516 1516 1516 1516 1516 1516 1516 1516 1517 1517 1517 1517 1517 1517 1517 1518 1518
1548 1546 1545 1544 1542 1541 1540 1539 1538 1537 1535 1534 1532 1531 1530 1529 1528 1526 1525 1525 1524 1523 1523 1522 1521 1521 1520 1519 1519 1518 1517 1517 1516 1515 1515 1515 1515 1515 1515 1515 1515 1515 1515 1515 1515 1515 1515 1515 1515 1515 1516 1516
1547 1545 1544 1543 1541 1540 1539 1538 1537 1536 1535 1533 1532 1531 1530 1528 1527 1526 1525 1524 1523 1522 1522 1521 1521 1520 1519 1519 1518 1518 1517 1516 1516 1515 1514 1514 1514 1514 1513 1513 1513 1513 1513 1513 1513 1513 1513 1513 1513 1514 1514 1514
1547 1545 1544 1542 1541 1539 1538 1537 1536 1535 1534 1533 1531 1530 1529 1528 1527 1526 1525 1524 1523 1522 1521 1520 1520 1519 1518 1518 1517 1517 1516 1515 1515 1514 1513 1513 1513 1512 1512 1512 1512 1511 1511 1512 1512 1512 1512 1512 1512 1512 1512 1512
1546 1545 1543 1542 1540 1539 1537 1536 1535 1534 1533 1532 1531 1530 1528 1527 1526 1525 1525 1524 1523 1522 1521 1520 1519 1518 1518 1517 1516 1516 1515 1515 1514 1513 1513 1512 1512 1511 1511 1511 1511 1511 1511 1511 1511 1511 1511 1511 1511 1511 1510 1510
1546 1544 1543 1541 1540 1538 1537 1535 1534 1533 1532 1531 1530 1529 1528 1527 1526 1525 1524 1523 1523 1522 1521 1520 1519 1518 1517 1516 1516 1515 1515 1514 1514 1513 1512 1512 1511 1511 1510 1510 1510 1510 1510 1510 1510 1510 1510 1510 1510 1510 1509 1509
1546 1544 1543 1541 1540 1538 1537 1535 1534 1532 1531 1531 1530 1529 1528 1527 1526 1525 1524 1523 1522 1522 1520 1520 1519 1518 1517 1516 1515 1515 1514 1514 1513 1513 1512 1511 1511 1510 1510 1509 1509 1509 1509 1509 1509 1509 1509 1509 1509 1509 1509 1508
1546 1545 1543 1541 1540 1538 1537 1535 1534 1532 1531 1530 1529 1528 1527 1527 1526 1524 1523 1523 1522 1521 1520 1519 1518 1517 1517 1516 1515 1515 1514 1514 1513 1513 1512 1511 1510 1510 1509 1509 1508 1508 1508 1508 1508 1508 1508 1508 1508 1508 1508 1507
1546 1545 1543 1541 1540 1538 1537 1535 1534 1532 1531 1530 1529 1528 1527 1526 1525 1524 1523 1522 1521 1521 1520 1519 1518 1517 1516 1516 1515 1514 1514 1513 1513 1512 1512 1511 1511 1510 1509 1509 1508 1508 1508 1507 1507 1507 1507 1507 1507 1507 1507 1506
1547 1545 1543 1542 1540 1539 1537 1536 1534 1533 1532 1531 1530 1529 1527 1526 1525 1524 1523 1522 1521 1520 1520 1519 1518 1517 1516 1515 1514 1514 1513 1513 1512 1512 1511 1511 1510 1510 1509 1508 1508 1507 1507 1507 1506 1506 1506 1506 1506 1505 1505 1505
1547 1546 1544 1543 1541 1539 1538 1536 1534 1533 1532 1531 1530 1529 1528 1526 1525 1524 1523 1522 1521 1520 1519 1518 1518 1517 1516 1515 1514 1513 1513 1512 1511 1511 1510 1510 1509 1509 1508 1508 1507 1507 1506 1506 1505 1505 1505 1504 1504 1504 1504 1504
1548 1546 1545 1543 1542 1540 1538 1536 1535 1533 1532 1531 1530 1529 1528 1526 1525 1524 1523 1522 1521 1520 1519 1518 1517 1516 1515 1514 1513 1513 1512 1511 1510 1510 1509 1508 1508 1507 1507 1506 1506 1506 1505 1505 1504 1504 1503 1503 1503 1503 1503 1503
1548 1547 1545 1544 1542 1541 1539 1537 1535 1534 1533 1531 1530 1529 1528 1526 1525 1524 1523 1522 1521 1520 1519 1518 1517 1516 1515 1514 1513 1512 1511 1511 1510 1509 1508 1508 1507 1506 1506 1506 1505 1505 1505 1504 1504 1503 1502 1502 1501 1501 1501 1501
1548 1547 1546 1544 1543 1541 1539 1538 1536 1534 1533 1531 1530 1529 1528 1526 1525 1524 1523 1522 1521 1520 1519 1518 1517 1516 1515 1514 1513 1512 1511 1510 1510 1509 1508 1508 1507 1506 1505 1505 1505 1504 1504 1504 1503 1503 1502 1501 1501 1501 1500 1500
1548 1547 1546 1544 1543 1542 1540 1538 1537 1535 1533 1532 1530 1529 1528 1526 1525 1524 1523 1522 1521 1520 1519 1518 1517 1515 1514 1513 1512 1512 1511 1510 1509 1509 1508 1507 1506 1506 1505 1505 1504 1504 1504 1503 1503 1503 1502 1502 1501 1501 1501 1499
1548 1547 1546 1544 1543 1542 1541 1539 1538 1536 1534 1533 1531 1529 1528 1526 1525 1524 1523 1522 1521 1520 1519 1518 1516 1515 1514 1513 1512 1511 1510 1510 1509 1508 1507 1507 1506 1505 1504 1504 1504 1503 1503 1503 1503 1503 1503 1502 1502 1501 1501 1500
1548 1547 1546 1545 1544 1543 1542 1540 1539 1537 1535 1533 1531 1529 1528 1527 1525 1524 1523 1522 1521 1519 1518 1517 1516 1515 1514 1513 1512 1511 1510 1509 1508 1508 1507 1507 1506 1505 1504 1503 1503 1503 1502 1503 1502 1502 1502 1502 1502 1501 1500 1500
1548 1547 1546 1545 1544 1543 1542 1540 1539 1537 1535 1533 1531 1529 1528 1527 1525 1524 1522 1521 1520 1519 1518 1517 1516 1515 1514 1513 1512 1511 1510 1509 1508 1507 1507 1506 1505 1505 1504 1503 1503 1502 1502 1502 1502 1501 1501 1501 1501 1500 1500 1500